Regional Weather Roundup
Issued by NWS

Home | Current Version | Previous Version | Graphics & Text | Print | Product List | Glossary On
Versions: 1 2 3 4 5 6 7 8 9 10 11 12 13 14 15 16 17 18 19 20 21 22 23 24 25 26 27 28 29 30 31 32 33 34 35 36 37 38 39 40 41 42 43 44 45 46 47 48 49 50
000
ASUS43 KMKX 252100
RWRWI

WISCONSIN REGIONAL WEATHER ROUNDUP
NATIONAL WEATHER SERVICE MILWAUKEE/SULLIVAN WI
400 PM CDT MON SEP 25 2017

NOTE: "FAIR" INDICATES FEW OR NO CLOUDS BELOW 12,000 FEET WITH NO
SIGNIFICANT WEATHER AND/OR OBSTRUCTIONS TO VISIBILITY.

WIZ001-002-006>008-014>016-023>028-252200-
NORTHWEST WISCONSIN

CITY           SKY/WX    TMP DP  RH WIND       PRES   REMARKS
SUPERIOR ARPT  CLOUDY    59  55  87 N5        29.99F
ASHLAND        HVY RAIN  60  59  96 N9        29.97F FOG
HAYWARD        HVY RAIN  61  58  90 NW6       29.96F FOG
SIREN          CLOUDY    59  56  92 N7        29.98F
CUMBERLAND     CLOUDY    61  57  88 N13       29.96F
RICE LAKE      RAIN      64  61  88 N6        29.96S
CHETEK           N/A     66  65  96 CALM      29.93S
LADYSMITH      TSTM      74  67  80 NW12      29.92R
EAU CLAIRE     TSTM      67  64  90 S18G52    29.90R VSB 1/4
MENOMONIE      CLOUDY    71  65  81 NW9       29.92R
NEW RICHMOND   CLOUDY    62  59  91 NW10      29.96F
OSCEOLA        CLOUDY    61  61 100 NW8       29.99F
$$

WIZ003>005-009-010-017-018-252200-
NORTH CENTRAL WISCONSIN

CITY           SKY/WX    TMP DP  RH WIND       PRES   REMARKS
MANITOWISH WTR NOT AVBL
ARBOR VITAE    MOSUNNY   77  66  68 NE3       29.92F THUNDER
WOODRUFF       MOSUNNY   77  66  68 NE3       29.92F THUNDER
RHINELANDER    MOSUNNY   83  62  49 S12       29.92F HX  84
EAGLE RIVER    SUNNY     82  61  47 S5        29.92F HX  83
LAND O LAKES   PTSUNNY   80  64  58 CALM      29.95F HX  81
PHILLIPS       PTSUNNY   77  65  67 SE7       29.91S
TOMAHAWK       MOSUNNY   83  63  51 CALM      29.91F HX  84
MEDFORD        PTSUNNY   81  64  55 S6        29.91F HX  82
MERRILL        MOSUNNY   84  64  50 SW5       29.91F HX  86
$$

WIZ029-030-035-036-043>047-252200-
CENTRAL WISCONSIN

CITY           SKY/WX    TMP DP  RH WIND       PRES   REMARKS
WAUSAU         MOSUNNY   86  61  42 S13       29.88F HX  86
MOSINEE        MOSUNNY   84  63  48 S12       29.92F HX  85
MARSHFIELD     PTSUNNY   81  63  54 S10       29.90F HX  82
STEVENS POINT  PTSUNNY   85  62  46 S9        29.91F HX  85
WAUPACA        MOSUNNY   91  59  35 SE7       29.91F HX  90
WAUTOMA        PTSUNNY   86  63  45 S5        29.90F HX  87
WISC RAPIDS    MOSUNNY   85  63  47 SW7       29.91F HX  86
CAMP DOUGLAS   PTSUNNY   79  63  57 W20G30    29.93R THUNDER HX  80
$$

WIZ011>013-019>022-031-037>040-048>050-252200-
NORTHEAST WISCONSIN

CITY           SKY/WX    TMP DP  RH WIND       PRES   REMARKS
ANTIGO         MOSUNNY   83  62  49 S10       29.94F HX  84
SHAWANO        SUNNY     89  61  37 SE7       29.90F HX  89
OCONTO         SUNNY     85  64  50 SE7       29.91F HX  86
STURGEON BAY   SUNNY     80  61  52 SE10G21   29.94F HX  81
GREEN BAY      SUNNY     89  61  38 S9        29.91F HX  89
MANITOWOC      SUNNY     77  66  68 SE10      29.94F
APPLETON       MOSUNNY   86  57  37 E8        29.91F HX  85
CLINTONVILLE   MOSUNNY   90  57  33 S8        29.91S HX  88
OSHKOSH        SUNNY     87  64  46 S8        29.91F HX  88
$$

WIZ032>034-041-042-053>061-252200-
SOUTHWEST WISCONSIN

CITY           SKY/WX    TMP DP  RH WIND       PRES   REMARKS
LA CROSSE      CLOUDY    70  66  87 SE8       29.91S
SPARTA         TSTM      66  64  93 CALM      29.96R
VIROQUA        CLOUDY    66  65  96 NE7       29.95F
BOSCOBEL       MOSUNNY   90  60  36 SW7       29.89R HX  89
PRAIRIE DU CHI LGT RAIN  69  62  79 W12G21    29.93R
PLATTEVILLE    SUNNY     90  61  37 S10       29.90F HX  89
$$

WIZ056-057-062-063-064-067-068-252200-
SOUTH CENTRAL WISCONSIN

CITY           SKY/WX    TMP DP  RH WIND       PRES   REMARKS
REEDSBURG      MOSUNNY   86  65  49 CALM      29.90S HX  87
BARABOO/DELLS  MOSUNNY   86  59  39 SE7       29.91S HX  85
LONE ROCK      MOSUNNY   91  62  37 S9        29.87F HX  91
MINERAL POINT  SUNNY     90  55  31 S10       29.91F HX  88
MADISON        MOSUNNY   89  60  37 S10       29.90F HX  89
MIDDLETON      MOSUNNY   89  57  34 S10       29.91F HX  87
WATERTOWN      SUNNY     90  59  35 CALM      29.91F HX  89
MONROE         SUNNY     90  54  29 S9        29.91F HX  87
JANESVILLE     MOSUNNY   91  52  25 S5        29.90F HX  89
$$

WIZ051-052-058>065-066-070>072-252200-
SOUTHEAST WISCONSIN

CITY           SKY/WX    TMP DP  RH WIND       PRES   REMARKS
MILWAUKEE      MOSUNNY   85  64  49 SE15      29.93F HX  86
WAUKESHA       PTSUNNY   90  55  31 SW9       29.94F HX  88
MILWAUKEE/TIMM PTSUNNY   84  52  32 SE10G16   29.94F HX  82
RACINE         SUNNY     83  65  54 S12       29.95F HX  85
BURLINGTON     SUNNY     90  56  32 SE10      29.92F HX  88
KENOSHA        SUNNY     88  59  37 SE14      29.94F HX  87
FOND DU LAC    SUNNY     88  58  36 S9        29.91F HX  87
SHEBOYGAN      MOSUNNY   83  65  54 S10       29.94F HX  85
WEST BEND        N/A     84  59  42 SE9       29.94F HX  84
JUNEAU         SUNNY     87  60  39 S6        29.93F HX  87
$$

LSZ147-162-252200-
LAKE SUPERIOR

STATION/POSITION TIME  TEMP    WIND        PRES    WAVE
                       AIR SEA DIR/SP/G            HT/PER
                 (UTC) (F)     (DEG/KT/KT) (MB)    (FT/S)
W MID LAKE BUOY  1950   58 56     CALM     1014.9F   1
DEVILS ISLAND    2000   60     310/ 10/ 12 1015.6F
SAXON HARBOR     2040   63     360/  8/ 10 1014.2F
$$

LMZ867-665-643>646-252200-
LAKE MICHIGAN

STATION/POSITION TIME  TEMP    WIND        PRES    WAVE
                       AIR SEA DIR/SP/G            HT/PER
                 (UTC) (F)     (DEG/KT/KT) (MB)    (FT/S)
S GREEN BAY BUOY 2000   76 71   70/  8/  8 1013.3F
N MID LAKE BUOY  1950   70 68  180/ 10/ 12 1014.7F   1/ 3
NORTHPORT PIER   2040   76     170/  6/ 11 1013.2F
KEWAUNEE LAKESHO 2030   68     180/  5/  8 1013.3F
SHEBOYGAN LAKESH 2000   71     160/  9/ 10 1013.7F
PORT WASHINGTON  2040   77     160/  2/  4 1014.6F
ATWATER BUOY     1909   67 62  180/  6/  6 1014.4F
MILWAUKEE LAKESH 2030   67     140/ 10/ 11   N/A
S MID LAKE BUOY  1950   73 71  140/  6/  8 1014.8F   1
KENOSHA   LAKESH 2000   75     170/ 10/ 11 1013.9
$$

TC  - TEMPERATURE IN CELSIUS
VSB - VISIBILITY IN STATUTE MILES
WCI - WIND CHILL INDEX
HX  - HEAT INDEX





USA.gov is the U.S. government's official web portal to all federal, state and local government web resources and services.